Retour au catalogue

STARLINK-32936

ActifCommunicationsVLEO
NORAD 63147·PAYLOAD·🇺🇸 United States

Lancé Mar 3, 2025 depuis Cape Canaveral Space Force Station

Loading…

Prochains Passages (prochaines 24 heures)

TLE

FraisSource: CelesTrak SupGP

Époque: Sep 14, 2026, 21:13 UTC

1 63147C 25043R   26257.88451389  .00053271  00000+0  19294-2 0  2574
2 63147  43.0033  34.6124 0001859 277.8946 242.0125 15.27552647    13

Suivez STARLINK-32936 en temps réel avec AllMySat

Download on the App Store